sat.trackr.live / text

‹ back to catalog

2025-313M

NORAD 67259 · 2025-313M

PAYLOAD ACTIVE UNKNOWN

§ Identity

Operator
Country
TBD
Launch date
2025-12-28
Launch site
VOSTO
Launch vehicle
Mass (kg)
RCS (m²)

External: N2YO · Heavens-Above · Gunter

§ Orbital elements

Epoch: 2026-09-20T10:14:45.539808Z

Period
94.34 min
Inclination
97.3884°
Eccentricity
0.0014046
Mean motion
15.26464935 rev/d
Perigee alt
476.7 km
Apogee alt
496.0 km
Semi-major
6,864.5 km
B*
3.2768e-4
RAAN
337.2379°
Arg perigee
31.5454°
Mean anomaly
328.6624°
Rev number
4,048

§ Raw data

2025-313M1 67259U 25313M   26263.42691597  .00008497  00000+0  32768-3 0  99912 67259  97.3884 337.2379 0014046  31.5454 328.6624 15.26464935 40483

JSON: /api/v1/satellites/67259 · /tle

For live sub-satellite position, see the globe view (requires WebGL).

§ Visibility from observer

Set your observer location to see the next 7 days of passes ≥ 10°. The values pass through the URL so the page stays shareable.

No JS? Fill the form by hand. The geolocation button needs JavaScript.